Change the Weather History Date:

Monday, November 12, 2012

  Actual Average Record
Temperature  
Mean Temperature 80 °F -  
Max Temperature 99 °F 90 °F 104 °F (2013)
Min Temperature 60 °F 61 °F 50 °F (2011)
Cooling Degree Days 14    
Growing Degree Days 30 (Base 50)    
Moisture  
Dew Point 35 °F    
Average Humidity 21    
Maximum Humidity 49    
Minimum Humidity 6    
Precipitation  
Precipitation 0.00 in 0.01 in - ()
Sea Level Pressure  
Sea Level Pressure 29.95 in    
Wind  
Wind Speed 9 mph ()    
Max Wind Speed 20 mph    
Max Gust Speed 31 mph    
Visibility 6.2 miles    
Events      
Averages and records for this station are not official NWS values.
T = Trace of Precipitation, MM = Missing Value Source: Averaged Metar Reports

Daily Weather History Graph

Daily Weather History Graph

Search for Another Location

Airport or City:

Trip Planner

Search our weather history database for the weather conditions in past years. The results will help you decide how hot, cold, wet, or windy it might be!

Date:

Astronomy

Nov. 12, 2012 Rise Set
Actual Time 5:35 AM SAST 7:03 PM SAST
Civil Twilight 5:09 AM SAST 7:29 PM SAST
Nautical Twilight 4:39 AM SAST 7:59 PM SAST
Astronomical Twilight 4:07 AM SAST 8:31 PM SAST
Moon 4:09 AM SAST (11/12) 5:36 PM SAST (11/12)
Length of Visible Light 14h 19m
Length of Day
13h 28m
Waning Crescent, 3% of the Moon is Illuminated
Nov 12
Waning Crescent
Nov 14
New
Nov 20
First Quarter
Nov 28
Full
Dec 6
Last Quarter

Hourly Weather History & Observations

Time (SAST) Temp. Dew Point Humidity Pressure Visibility Wind Dir Wind Speed Gust Speed Precip Events Conditions
12:00 AM 75.2 °F 33.8 °F 22% 29.98 in - SW 12.7 mph - N/A   Unknown
1:00 AM 69.8 °F 35.6 °F 28% 29.98 in 6.2 mi SW 10.4 mph - N/A   Partly Cloudy
2:00 AM 69 °F 41 °F 25%  in 25 mi SW 9.2 mph - -   Scattered Clouds
2:00 AM 68.0 °F 41.0 °F 37% 29.98 in 6.2 mi SW 8.1 mph - N/A   Partly Cloudy
3:00 AM 64.4 °F 44.6 °F 49% 29.98 in - SW 5.8 mph - N/A   Clear
4:00 AM 62.6 °F 42.8 °F 48% 29.98 in - WSW 5.8 mph - N/A   Clear
5:00 AM 63 °F 36 °F 25%  in 25 mi WSW 8.1 mph - -   Scattered Clouds
5:00 AM 62.6 °F 35.6 °F 37% 29.98 in - WSW 6.9 mph - N/A   Clear
6:00 AM 60.8 °F 39.2 °F 45% 30.01 in - WSW 3.5 mph - N/A   Clear
6:36 AM 64.4 °F 35.6 °F 34% 30.01 in - WSW 3.5 mph - N/A   Clear
7:00 AM 66.2 °F 33.8 °F 30% 30.01 in - SSW 4.6 mph - N/A   Clear
8:00 AM 70 °F 30 °F 13%  in 25 mi SSW 6.9 mph - -   Scattered Clouds
8:00 AM 69.8 °F 30.2 °F 23% 30.01 in - SSW 6.9 mph - N/A   Clear
9:00 AM 69.8 °F 30.2 °F 23% 30.04 in - NNE 3.5 mph - N/A   Clear
9:33 AM 78.8 °F 28.4 °F 16% 30.04 in - North 5.8 mph - N/A   Clear
10:00 AM 80.6 °F 30.2 °F 16% 30.01 in - North 5.8 mph - N/A   Clear
11:00 AM 87 °F 31 °F 7%  in 25 mi North 13.8 mph - -   Scattered Clouds
11:00 AM 86.0 °F 32.0 °F 14% 29.98 in - North 13.8 mph - N/A   Clear
11:35 AM 91.4 °F 35.6 °F 14% 29.95 in - North 17.3 mph - N/A   Clear
12:00 PM 93.2 °F 37.4 °F 14% 29.95 in - NNW 17.3 mph - N/A   Clear
1:00 PM 89.6 °F 39.2 °F 17% 29.92 in 6.2 mi North 19.6 mph - N/A   Mostly Cloudy
2:00 PM 95 °F 37 °F 7%  in 25 mi North 17.3 mph - -   Scattered Clouds
2:00 PM 93.2 °F 35.6 °F 13% 29.89 in 6.2 mi North 16.1 mph 31.1 mph N/A   Mostly Cloudy
3:00 PM 98.6 °F 37.4 °F 12% 29.86 in 6.2 mi NNW 15.0 mph 29.9 mph N/A   Scattered Clouds
4:00 PM 96.8 °F 39.2 °F 14% 29.83 in 6.2 mi NNW 15.0 mph - N/A   Scattered Clouds
5:00 PM 99 °F 38 °F 6%  in 25 mi NNW 17.3 mph - -   Partly Cloudy
5:00 PM 98.6 °F 37.4 °F 12% 29.83 in 6.2 mi NNW 16.1 mph - N/A   Scattered Clouds
6:00 PM 93.2 °F 35.6 °F 13% 29.83 in 6.2 mi NNW 17.3 mph - N/A   Scattered Clouds
7:00 PM 91.4 °F 32.0 °F 12% 29.83 in 6.2 mi NW 11.5 mph - N/A   Partly Cloudy
8:00 PM 87 °F 41 °F 11%  in 25 mi NNW 9.2 mph - -   Scattered Clouds
8:00 PM 86.0 °F 39.2 °F 19% 29.83 in 6.2 mi NNW 9.2 mph - N/A   Partly Cloudy
9:00 PM 84.2 °F 26.6 °F 12% 29.92 in - SW 18.4 mph - N/A   Unknown
10:00 PM 78.8 °F 24.8 °F 14% 29.95 in - SW 18.4 mph 29.9 mph N/A   Unknown
11:00 PM 74 °F 36 °F 15%  in - SSW 8.1 mph - -  
11:00 PM 73.4 °F 35.6 °F 25% 30.01 in - SSW 8.1 mph - N/A   Unknown